When you browse on this site, cookies collect data to enhance your experience and personalize the content and advertising you see.
Visit our Privacy Policy to learn more. By continuing to use the site, you agree to this use of cookies and data.
  • en France
  • Liste des pays
  • À 7 jours
  • Température de l'eau
  • Carte météo
  • Widgets météo
  • user-avatar
    Se connecter

    Météo par heure à Bukittinggi

    Ce jour, 27 Mai, Mercredi

    Heure Température Précipitation Vent Pression Humidité
    00:00 +22°C° 0 mm 1 m/s 683 mmHg 87%
    01:00 +22°C° 0 mm 1 m/s 683 mmHg 86%
    02:00 +20°C° 0 mm 0 m/s 682 mmHg 84%
    03:00 +20°C° 0 mm 0 m/s 681 mmHg 83%
    04:00 +20°C° 0 mm 0 m/s 681 mmHg 82%
    05:00 +20°C° 0 mm 0 m/s 681 mmHg 81%
    06:00 +20°C° 0 mm 0 m/s 682 mmHg 80%
    07:00 +20°C° 0 mm 0 m/s 682 mmHg 79%
    08:00 +22°C° 0 mm 0 m/s 683 mmHg 74%
    09:00 +24°C° 0 mm 0 m/s 683 mmHg 69%
    10:00 +25°C° 0 mm 0 m/s 684 mmHg 63%
    11:00 +26°C° 0 mm 0 m/s 683 mmHg 62%
    12:00 +28°C° 0 mm 1 m/s 683 mmHg 60%
    13:00 +29°C° 0 mm 1 m/s 683 mmHg 59%
    14:00 +26°C° 1 mm 0 m/s 682 mmHg 67%
    15:00 +26°C° 1 mm 0 m/s 682 mmHg 76%
    16:00 +25°C° 1 mm 0 m/s 681 mmHg 84%
    17:00 +23°C° 1 mm 0 m/s 681 mmHg 88%
    18:00 +22°C° 1 mm 0 m/s 681 mmHg 91%
    19:00 +20°C° 1 mm 0 m/s 682 mmHg 95%
    20:00 +20°C° 0.1 mm 0 m/s 682 mmHg 95%
    21:00 +20°C° 0.1 mm 0 m/s 683 mmHg 94%
    22:00 +20°C° 0.1 mm 0 m/s 683 mmHg 94%
    23:00 +20°C° 0 mm 0 m/s 683 mmHg 94%

    Demain, 28 Mai, Jeudi

    Heure Température Précipitation Vent Pression Humidité
    00:00 +20°C° 0 mm 0 m/s 682 mmHg 94%
    01:00 +19°C° 0 mm 0 m/s 682 mmHg 94%
    02:00 +19°C° 0 mm 0 m/s 681 mmHg 94%
    03:00 +19°C° 0 mm 0 m/s 681 mmHg 95%
    04:00 +19°C° 0 mm 0 m/s 681 mmHg 95%
    05:00 +19°C° 0 mm 0 m/s 681 mmHg 94%
    06:00 +20°C° 0 mm 0 m/s 681 mmHg 94%
    07:00 +20°C° 0 mm 0 m/s 682 mmHg 93%
    08:00 +22°C° 0 mm 0 m/s 682 mmHg 82%
    09:00 +25°C° 0 mm 0 m/s 683 mmHg 70%
    10:00 +28°C° 0 mm 0 m/s 684 mmHg 58%
    11:00 +31°C° 0 mm 1 m/s 684 mmHg 55%
    12:00 +31°C° 0 mm 1 m/s 683 mmHg 52%
    13:00 +32°C° 0 mm 1 m/s 683 mmHg 48%
    14:00 +31°C° 0.8 mm 1 m/s 682 mmHg 59%
    15:00 +29°C° 0.8 mm 1 m/s 681 mmHg 70%
    16:00 +28°C° 0.8 mm 1 m/s 680 mmHg 80%
    17:00 +26°C° 1 mm 1 m/s 681 mmHg 86%
    18:00 +23°C° 1 mm 0 m/s 681 mmHg 91%
    19:00 +21°C° 1 mm 0 m/s 681 mmHg 96%
    20:00 +21°C° 0.6 mm 0 m/s 681 mmHg 97%
    21:00 +21°C° 0.6 mm 0 m/s 682 mmHg 97%
    22:00 +20°C° 0.6 mm 0 m/s 682 mmHg 97%
    23:00 +20°C° 0.1 mm 0 m/s 682 mmHg 97%

    Après-demain, 29 Mai, Vendredi

    Heure Température Précipitation Vent Pression Humidité
    00:00 +20°C° 0.1 mm 0 m/s 682 mmHg 97%
    01:00 +20°C° 0.1 mm 0 m/s 682 mmHg 97%
    02:00 +20°C° 0 mm 0 m/s 681 mmHg 97%
    03:00 +20°C° 0 mm 0 m/s 681 mmHg 97%
    04:00 +19°C° 0 mm 0 m/s 681 mmHg 96%
    05:00 +20°C° 0.4 mm 0 m/s 681 mmHg 96%
    06:00 +20°C° 0.4 mm 0 m/s 682 mmHg 96%
    07:00 +20°C° 0.4 mm 0 m/s 682 mmHg 95%
    08:00 +21°C° 0.7 mm 0 m/s 683 mmHg 91%
    09:00 +23°C° 0.7 mm 0 m/s 683 mmHg 87%
    10:00 +24°C° 0.7 mm 0 m/s 684 mmHg 83%
    11:00 +25°C° 0.5 mm 0 m/s 683 mmHg 79%
    12:00 +28°C° 0.5 mm 1 m/s 683 mmHg 75%
    13:00 +28°C° 0.5 mm 1 m/s 683 mmHg 70%
    14:00 +27°C° 1.5 mm 1 m/s 682 mmHg 78%
    15:00 +24°C° 1.5 mm 0 m/s 682 mmHg 85%
    16:00 +23°C° 1.5 mm 0 m/s 681 mmHg 92%
    17:00 +22°C° 1.7 mm 0 m/s 681 mmHg 93%
    18:00 +21°C° 1.7 mm 0 m/s 682 mmHg 95%
    19:00 +20°C° 1.7 mm 0 m/s 682 mmHg 96%
    20:00 +20°C° 0.5 mm 0 m/s 683 mmHg 96%
    21:00 +20°C° 0.5 mm 0 m/s 683 mmHg 96%
    22:00 +22°C° 0.5 mm 1 m/s 683 mmHg 96%
    23:00 +20°C° 0 mm 0 m/s 683 mmHg 96%

    30 Mai, Samedi

    Heure Température Précipitation Vent Pression Humidité
    00:00 +19°C° 0 mm 0 m/s 683 mmHg 95%
    01:00 +19°C° 0 mm 0 m/s 682 mmHg 95%
    02:00 +19°C° 0 mm 0 m/s 682 mmHg 94%
    03:00 +19°C° 0 mm 0 m/s 682 mmHg 94%
    04:00 +19°C° 0 mm 0 m/s 681 mmHg 94%
    05:00 +19°C° 0 mm 0 m/s 681 mmHg 93%
    06:00 +19°C° 0 mm 0 m/s 682 mmHg 92%
    07:00 +20°C° 0 mm 0 m/s 682 mmHg 92%
    08:00 +22°C° 0 mm 0 m/s 683 mmHg 81%
    09:00 +24°C° 0 mm 0 m/s 684 mmHg 71%
    10:00 +27°C° 0 mm 0 m/s 684 mmHg 61%
    11:00 +27°C° 0.3 mm 0 m/s 684 mmHg 62%
    12:00 +29°C° 0.3 mm 1 m/s 684 mmHg 64%
    13:00 +29°C° 0.3 mm 1 m/s 683 mmHg 66%
    14:00 +28°C° 2.1 mm 1 m/s 682 mmHg 73%
    15:00 +27°C° 2.1 mm 1 m/s 682 mmHg 80%
    16:00 +26°C° 2.1 mm 1 m/s 681 mmHg 87%
    17:00 +23°C° 1.6 mm 0 m/s 681 mmHg 90%
    18:00 +22°C° 1.6 mm 0 m/s 681 mmHg 93%
    19:00 +20°C° 1.6 mm 0 m/s 682 mmHg 96%
    20:00 +20°C° 1.4 mm 0 m/s 682 mmHg 96%
    21:00 +20°C° 1.4 mm 0 m/s 683 mmHg 96%
    22:00 +20°C° 1.4 mm 0 m/s 683 mmHg 96%
    23:00 +20°C° 2 mm 0 m/s 683 mmHg 96%

    31 Mai, Dimanche

    Heure Température Précipitation Vent Pression Humidité
    00:00 +19°C° 2 mm 0 m/s 683 mmHg 97%
    01:00 +19°C° 2 mm 0 m/s 682 mmHg 97%
    02:00 +19°C° 2 mm 0 m/s 682 mmHg 97%
    03:00 +19°C° 2 mm 0 m/s 682 mmHg 97%
    04:00 +19°C° 2 mm 0 m/s 682 mmHg 98%
    05:00 +19°C° 1.1 mm 0 m/s 682 mmHg 97%
    06:00 +19°C° 1.1 mm 0 m/s 682 mmHg 97%
    07:00 +19°C° 1.1 mm 0 m/s 683 mmHg 97%
    08:00 +20°C° 0.3 mm 0 m/s 683 mmHg 95%
    09:00 +21°C° 0.3 mm 0 m/s 683 mmHg 92%
    10:00 +22°C° 0.3 mm 0 m/s 684 mmHg 90%
    11:00 +23°C° 0.4 mm 0 m/s 683 mmHg 85%
    12:00 +24°C° 0.4 mm 0 m/s 683 mmHg 80%
    13:00 +25°C° 0.4 mm 0 m/s 683 mmHg 76%
    14:00 +25°C° 0.5 mm 0 m/s 682 mmHg 76%
    15:00 +25°C° 0.5 mm 0 m/s 682 mmHg 77%
    16:00 +25°C° 0.5 mm 0 m/s 681 mmHg 77%
    17:00 +23°C° 0.9 mm 0 m/s 682 mmHg 83%
    18:00 +22°C° 0.9 mm 0 m/s 682 mmHg 89%
    19:00 +21°C° 0.9 mm 0 m/s 682 mmHg 95%
    20:00 +20°C° 1.1 mm 0 m/s 682 mmHg 95%
    21:00 +20°C° 1.1 mm 0 m/s 682 mmHg 95%
    22:00 +20°C° 1.1 mm 0 m/s 683 mmHg 96%
    23:00 +20°C° 1.2 mm 0 m/s 683 mmHg 95%

    1 Juin, Lundi

    Heure Température Précipitation Vent Pression Humidité
    00:00 +20°C° 1.2 mm 0 m/s 682 mmHg 95%
    01:00 +19°C° 1.2 mm 0 m/s 682 mmHg 95%
    02:00 +19°C° 0.4 mm 0 m/s 682 mmHg 96%
    03:00 +19°C° 0.4 mm 0 m/s 682 mmHg 96%
    04:00 +19°C° 0.4 mm 0 m/s 681 mmHg 97%
    05:00 +19°C° 0 mm 0 m/s 682 mmHg 96%
    06:00 +19°C° 0 mm 0 m/s 682 mmHg 95%
    07:00 +19°C° 0 mm 0 m/s 682 mmHg 95%
    08:00 +21°C° 0.3 mm 0 m/s 683 mmHg 91%
    09:00 +22°C° 0.3 mm 0 m/s 683 mmHg 87%
    10:00 +23°C° 0.3 mm 0 m/s 684 mmHg 83%
    11:00 +23°C° 0.6 mm 0 m/s 683 mmHg 85%
    12:00 +23°C° 0.6 mm 0 m/s 682 mmHg 87%
    13:00 +25°C° 0.6 mm 1 m/s 682 mmHg 89%
    14:00 +25°C° 0.3 mm 1 m/s 681 mmHg 89%
    15:00 +25°C° 0.3 mm 1 m/s 681 mmHg 89%
    16:00 +25°C° 0.3 mm 1 m/s 680 mmHg 89%
    17:00 +24°C° 0.3 mm 1 m/s 681 mmHg 92%
    18:00 +23°C° 0.3 mm 1 m/s 681 mmHg 95%
    19:00 +22°C° 0.3 mm 1 m/s 681 mmHg 97%
    20:00 +22°C° 0.2 mm 1 m/s 682 mmHg 97%
    21:00 +22°C° 0.2 mm 1 m/s 682 mmHg 97%
    22:00 +21°C° 0.2 mm 1 m/s 683 mmHg 97%
    23:00 +21°C° 0.1 mm 1 m/s 682 mmHg 96%
    Voir plus